Dewpoint
26 24 21 20 20 21 19 17 16 22 27 32 35 37 31 34 46 46 43 45 49 47 52 51 51 51 49 49 49 51 50 49 49 46 47 47 48 51 52 53 57 58 57 58
24 23 23 23 22 21 21 18 14 16 26 26 35 36 34 38 45 42 41 44 48 47 49 50 51 50 49 46 46 47 47 47 49 46 45 45 51 51 51 52 57 58 59 59
23 23 24 23 23 22 20 18 13 16 23 23 23 37 39 42 43 44 39 39 44 47 48 49 51 50 48 46 45 44 45 50 48 49 47 51 55 50 50 53 55 58 57 54
25 25 24 24 24 21 17 15 15 17 19 18 20 18 40 39 39 42 39 39 40 48 48 49 51 50 48 49 49 50 50 53 51 51 52 54 53 51 48 50 57 58 58 56
25 24 24 23 23 21 17 17 22 22 21 20 17 20 21 37 38 38 39 41 41 45 48 47 49 52 51 50 50 53 53 54 52 52 54 54 52 51 49 52 56 57 58 58
25 25 24 22 23 21 18 22 21 23 22 19 18 21 22 33 35 36 39 41 41 40 45 48 48 50 52 52 52 52 53 54 54 54 54 54 53 49 47 49 57 57 58 58
23 22 22 22 21 21 19 19 18 18 19 18 29 25 23 22 26 27 37 38 40 41 41 45 47 49 50 51 52 52 51 51 52 52 53 53 53 51 48 49 54 57 57 58
21 19 21 21 21 20 18 19 18 15 17 21 29 22 24 29 29 26 37 37 38 40 40 42 45 47 49 50 51 52 52 52 52 52 53 53 54 53 51 53 55 57 57 58
20 19 21 19 20 19 17 18 20 20 31 25 28 29 31 27 25 26 27 34 34 36 40 40 42 45 47 49 50 52 53 52 52 53 53 54 53 54 56 56 57 56 58 56
22 20 22 21 19 20 18 21 19 22 20 21 26 27 25 25 22 22 21 28 32 35 39 40 41 43 44 46 49 51 51 52 52 52 53 55 56 55 57 56 54 55 56 55
21 21 21 22 19 18 19 18 21 25 26 23 20 21 27 28 24 19 16 22 27 31 35 38 41 41 44 45 46 49 51 53 54 54 53 54 57 57 57 58 58 58 54 53
22 22 19 20 23 21 20 19 20 24 24 25 27 24 27 24 24 21 21 20 26 34 35 36 38 39 41 44 47 49 52 55 51 52 55 56 58 58 58 58 57 56 52 52
23 20 18 19 19 21 20 20 22 22 25 22 21 24 28 26 27 22 21 21 26 29 35 38 40 40 41 43 48 50 54 55 54 54 54 59 59 58 58 57 56 54 53 53
37 21 19 18 18 21 21 23 21 20 21 22 26 26 28 28 28 26 26 27 27 26 31 40 41 42 43 46 50 54 55 57 58 59 58 58 57 56 56 55 54 52 51 50
39 25 20 18 21 22 23 23 24 21 23 23 26 28 29 29 27 26 28 27 26 27 27 39 42 44 47 50 53 54 55 56 58 58 57 56 56 55 54 52 49 47 46 45
39 31 24 23 19 20 21 24 24 21 21 26 27 26 28 29 28 32 27 27 27 28 29 33 45 48 50 51 53 53 53 54 55 54 54 55 54 54 53 51 48 46 44 43
38 34 25 21 24 21 20 22 22 21 22 20 23 27 28 25 28 29 28 28 28 27 32 37 47 49 51 53 53 52 51 50 50 50 50 49 48 47 47 48 47 45 43 41
34 34 33 23 24 21 23 24 24 20 20 20 18 19 20 21 22 26 27 29 28 34 39 46 49 51 51 51 50 48 47 47 47 46 45 45 43 42 40 40 39 39 38 37
38 34 32 27 23 27 28 23 21 20 19 21 20 19 19 20 19 27 29 31 36 40 44 46 47 47 47 47 46 45 45 44 44 44 43 42 40 38 37 37 36 36 36 36
38 36 31 33 25 23 26 27 24 24 20 22 24 23 22 24 22 25 33 36 40 42 43 43 43 43 44 43 43 42 42 42 42 41 41 40 39 38 38 38 37 38 38 37
30 30 28 29 32 28 29 25 26 21 22 26 24 26 26 26 28 32 38 39 41 41 41 41 41 40 40 40 40 39 39 39 40 40 40 40 40 40 39 39 39 38 38 37
27 28 28 33 31 28 35 30 23 26 26 26 27 27 27 31 34 36 37 38 38 39 39 39 39 38 39 39 39 38 38 39 39 39 40 39 39 38 39 38 38 38 37 35
27 28 29 33 34 36 33 36 40 40 37 34 28 27 32 35 34 36 37 37 38 38 38 38 38 38 38 38 38 37 38 39 39 39 38 38 38 38 37 37 34 32 32 28
31 36 31 28 28 32 32 37 40 45 42 40 34 32 36 34 36 36 37 37 37 37 37 38 38 38 37 38 38 38 38 38 37 36 34 32 29 25 22 26 24 23 21 21
32 34 33 32 29 33 34 38 40 42 44 42 40 35 35 37 37 37 37 36 36 36 37 38 38 37 37 37 37 37 35 32 30 27 24 23 21 19 21 23 19 17 20 22
30 32 28 28 32 35 33 39 40 38 44 43 40 38 36 38 38 37 36 36 36 36 37 37 37 35 34 33 32 32 31 28 25 23 22 21 20 18 18 19 18 19 18 18
Wind_Speed
11 11 18 18 23 26 21 20 13 7 9 10 20 17 21 18 10 26 22 23 23 24 25 23 24 24 21 20 21 24 23 22 20 21 20 18 19 19 15 14 15 19 17 16
17 26 23 23 27 25 23 20 16 10 5 8 18 21 20 17 11 22 25 25 26 22 27 27 24 24 24 25 24 25 25 27 22 22 19 15 14 9 14 15 15 18 18 11
22 18 24 27 26 24 22 16 10 9 8 16 10 5 13 14 17 13 20 24 25 33 28 27 27 27 27 28 27 29 28 25 24 21 18 14 11 15 16 15 16 19 19 19
19 27 28 24 26 21 18 11 15 10 6 10 7 6 18 24 21 20 20 25 24 30 29 30 31 29 31 29 27 27 27 25 25 25 24 23 22 19 18 17 15 18 20 19
23 15 22 25 18 10 19 16 4 7 9 10 13 6 7 23 19 25 24 29 25 31 33 33 34 34 31 30 31 29 28 28 28 26 26 25 25 20 21 20 22 22 20 20
23 22 24 23 17 16 17 7 4 7 6 15 14 7 14 22 29 27 30 28 29 29 32 34 34 33 34 31 30 30 32 32 31 31 32 28 26 23 22 20 21 20 18 20
24 31 24 20 19 16 18 9 6 6 12 16 5 6 9 15 17 13 34 32 33 31 33 34 34 33 33 34 36 32 33 34 33 33 33 34 27 28 27 24 21 21 18 12
23 25 28 19 23 16 21 15 10 9 7 8 4 5 12 13 14 16 25 33 27 26 28 36 38 36 35 37 37 36 35 33 33 34 34 32 28 25 25 23 18 14 17 18
19 27 11 25 16 23 20 18 15 12 3 2 3 9 11 17 21 17 23 22 25 24 24 27 35 36 36 37 39 39 37 36 32 29 28 30 31 26 22 22 18 23 21 15
14 15 27 23 21 19 19 8 13 7 10 11 7 11 9 15 19 14 13 23 27 26 25 23 26 35 35 37 38 38 37 39 39 35 28 27 29 28 23 23 20 11 12 21
29 25 21 18 23 25 13 18 8 11 11 6 8 10 10 19 5 12 15 10 13 15 22 21 23 18 29 34 35 34 30 19 23 18 26 26 26 31 28 20 16 9 11 17
28 8 26 34 17 16 19 23 20 13 9 7 10 25 9 9 4 5 8 14 15 16 13 11 12 8 7 18 30 24 32 38 39 30 24 22 8 15 3 8 17 21 20 16
21 26 28 22 21 18 30 23 19 14 9 19 20 10 15 13 14 10 7 9 14 15 15 15 10 4 2 4 8 26 32 36 24 25 29 16 20 24 19 15 16 16 16 14
23 24 26 39 12 9 14 14 17 19 18 18 15 12 11 14 6 8 6 2 6 17 17 19 16 13 7 3 11 18 21 20 22 24 18 22 19 20 21 19 18 16 15 14
11 19 34 28 22 19 21 30 29 26 23 21 18 14 17 20 9 27 11 5 3 11 13 20 21 17 14 11 15 18 16 18 22 21 20 21 21 20 20 19 17 16 14 13
18 21 15 16 28 29 23 24 31 27 13 22 19 21 23 27 20 15 16 17 15 21 22 13 20 19 19 17 16 17 17 17 21 23 22 20 20 18 16 17 16 15 14 13
16 17 18 28 8 15 27 30 23 18 23 19 22 23 24 25 20 27 22 27 24 21 19 16 23 22 20 21 21 20 18 19 21 20 19 20 21 21 19 17 17 15 15 14
10 25 9 17 14 21 25 8 22 20 22 22 13 6 7 16 19 22 29 31 23 21 19 20 22 19 18 20 22 21 20 21 20 19 20 19 20 20 19 19 19 18 16 14
9 7 9 10 24 10 19 14 22 22 23 13 11 10 15 17 9 5 14 19 23 24 20 21 20 22 21 21 20 22 21 20 20 19 19 19 20 21 20 19 18 16 17 15
12 4 7 8 17 30 1 23 14 1 21 8 10 15 15 14 18 11 10 17 21 22 24 25 23 23 23 19 21 22 20 20 19 17 17 18 19 18 19 18 18 13 14 14
5 5 8 22 9 9 9 17 5 14 7 7 17 10 4 8 15 10 17 16 22 24 25 22 22 22 21 20 21 20 18 18 17 19 18 20 21 21 20 17 18 17 16 16
14 14 10 7 10 13 19 7 22 7 15 19 19 4 8 14 15 24 24 25 25 26 25 22 23 22 20 21 21 19 18 15 18 21 20 20 18 16 17 18 14 15 16 16
9 10 13 12 8 15 22 13 19 21 20 22 1 12 8 19 19 23 24 25 24 25 23 21 23 22 19 20 21 22 16 19 19 19 18 17 16 16 15 15 13 14 15 17
3 10 7 7 9 15 20 16 24 22 19 26 11 17 18 18 22 21 23 23 22 22 22 20 23 22 21 20 20 22 20 19 20 19 17 14 16 17 15 15 14 17 15 15
5 13 9 3 6 21 19 8 20 22 25 31 29 6 6 18 23 26 22 22 20 21 18 20 19 19 19 20 20 19 20 21 20 18 17 17 18 19 18 15 12 14 10 11
10 7 10 9 15 17 8 8 13 19 18 22 19 15 7 13 18 17 19 20 22 21 21 21 20 21 19 19 18 17 17 20 20 19 16 15 17 15 15 16 14 13 13 14
Wind_Direction
218 225 238 247 243 243 260 279 287 251 193 178 195 192 200 220 195 200 187 181 177 162 166 162 164 168 163 166 163 171 173 174 176 180 181 186 205 218 214 214 211 195 202 197
225 233 231 244 254 258 262 271 274 311 199 211 182 207 203 228 249 191 182 185 174 159 155 160 164 164 172 173 177 178 183 190 186 190 196 202 209 217 213 223 209 207 207 197
214 233 225 237 250 257 271 268 288 279 187 266 252 197 212 248 256 271 182 174 158 164 166 167 167 172 177 181 182 184 189 188 191 189 194 208 224 220 212 216 215 208 206 212
235 236 245 249 245 246 266 264 257 259 278 250 215 275 216 222 220 225 182 178 169 172 173 174 173 178 181 186 186 190 193 194 193 192 197 206 213 213 214 208 201 204 210 209
227 238 240 245 254 240 260 260 315 309 306 297 296 271 255 211 207 207 191 186 190 177 178 179 182 182 187 186 190 195 196 196 197 201 205 211 212 213 204 202 201 205 204 204
252 235 248 247 249 237 260 220 246 279 280 285 279 281 284 185 196 210 199 181 193 183 184 185 187 186 185 189 193 196 198 201 202 203 209 214 211 210 206 202 197 201 199 196
244 254 249 247 246 222 256 253 215 250 247 253 345 328 255 244 175 179 178 179 195 190 184 186 187 189 192 188 193 197 202 204 203 206 210 215 215 202 204 207 194 188 187 199
227 246 240 234 222 215 243 225 200 244 243 270 359 266 274 326 186 178 173 184 193 183 192 187 189 191 194 196 194 196 202 206 205 208 213 215 211 209 208 197 189 184 187 215
207 237 236 234 237 205 236 232 210 236 77 227 252 284 294 286 223 196 200 191 206 209 204 200 191 191 197 197 199 197 197 204 208 206 211 213 212 210 198 183 171 195 191 191
238 249 239 252 224 236 215 226 222 222 238 246 221 246 237 264 218 216 167 196 216 222 216 205 188 194 199 202 202 201 201 202 207 208 206 207 206 207 191 182 197 197 169 169
219 241 267 245 229 216 214 224 223 205 213 257 240 234 189 224 239 187 177 163 144 150 170 196 209 203 209 206 205 203 199 170 215 235 225 219 205 199 193 178 163 161 164 167
212 223 237 254 273 232 207 210 218 199 201 211 258 254 190 202 230 263 229 176 162 153 156 153 155 180 177 196 214 196 188 187 197 211 228 215 171 109 46 139 140 173 177 169
223 223 240 266 253 257 217 218 209 221 199 220 245 245 217 183 275 255 213 164 167 162 165 161 158 190 261 113 122 187 181 196 203 212 227 179 170 192 192 162 157 159 158 167
321 213 223 229 239 209 234 236 243 230 225 232 224 244 273 240 274 272 69 22 216 182 173 167 169 175 189 107 98 109 166 179 175 193 147 142 143 131 130 132 137 154 155 163
313 258 229 229 220 237 212 224 246 247 225 224 238 240 253 245 224 250 194 195 271 202 207 181 176 173 156 128 107 104 110 107 125 126 123 123 123 123 130 136 135 130 128 130
323 267 242 242 216 219 234 225 222 233 243 225 224 231 239 251 243 194 210 218 235 204 200 171 168 155 149 135 123 110 105 102 110 116 120 122 124 123 123 125 126 125 125 128
310 334 233 246 230 221 246 240 255 235 249 255 227 225 225 241 221 199 196 224 214 185 170 155 159 157 151 142 133 123 114 105 102 108 109 112 115 117 119 122 126 126 126 129
260 321 280 210 199 229 251 237 251 249 249 258 244 240 259 250 239 200 201 213 207 165 152 146 147 143 137 133 128 123 119 118 116 111 111 113 115 116 114 114 117 120 128 134
142 311 312 215 212 237 266 237 211 220 248 244 250 268 267 274 268 145 153 167 165 158 151 142 135 132 131 131 128 126 125 123 121 124 125 125 121 120 120 123 127 127 128 130
161 233 23 311 216 220 294 244 257 347 258 251 274 256 258 261 255 220 161 147 147 141 140 137 133 130 132 135 129 129 132 132 132 127 120 119 120 122 125 132 136 137 136 130
155 123 299 285 260 271 214 195 237 233 237 274 255 245 22 268 226 174 139 136 141 140 140 133 132 138 138 133 128 131 132 132 128 126 120 115 117 122 123 122 121 120 121 119
176 171 181 285 214 246 16 294 219 245 271 256 257 313 140 140 134 149 149 147 146 145 141 137 137 139 137 133 129 128 129 121 109 109 113 116 118 122 125 130 136 136 134 131
196 199 176 165 275 292 322 317 311 353 335 295 159 282 176 153 161 161 157 155 153 148 143 139 141 138 135 131 132 131 125 117 115 115 120 126 129 136 148 151 143 130 134 131
188 156 163 128 255 286 305 355 345 345 342 332 313 234 167 172 167 166 157 153 148 147 145 141 140 140 139 135 131 133 132 128 126 130 137 140 130 114 97 94 98 108 116 116
197 165 181 241 313 303 289 357 325 315 324 339 334 324 75 167 176 167 164 157 149 147 135 135 137 136 133 128 130 134 134 132 131 125 125 119 108 104 93 83 96 100 78 115
196 169 189 234 214 207 217 177 237 281 314 313 321 320 3 183 181 161 157 148 143 140 131 129 124 115 111 111 117 123 124 122 117 114 107 111 117 113 106 104 87 74 92 94